Hourly Data Report for October 30, 2015

All times are specified in Local Standard Time (LST). Add 1 hour to adjust for Daylight Saving Time where and when it is observed.

POND INLET A
NUNAVUT

72°41'22.000" N
77°58'08.000" W
61.60 m
2403206
71095
YIO

Download Data

Hourly Data (October 2015)
Hourly Data Report for October 30, 2015
Temp Definition
°C
Dew Point Temp Definition
°C
Rel Hum Definition
%
Wind Dir Definition
10's deg

Wind Spd Definition
km/h
Visibility Definition
km
Stn Press Definition
kPa
Hmdx Definition


Wind Chill Definition


Weather Definition


TIME
00:00 Legend Double Dagger -13.1 -15.3 84 26 21 16.1 99.79   -22 Snow
01:00 Legend Double Dagger -13.1 -15.4 83 29 15 16.1 99.75   -21 LegendNANA
02:00 Legend Double Dagger -13.6 -15.7 84 25 21 16.1 99.74   -23 Snow
03:00 Legend Double Dagger -14.0 -16.0 85 27 17 16.1 99.73   -22 Snow
04:00 Legend Double Dagger -14.5 -16.8 83 27 22 16.1 99.74   -24 LegendNANA
05:00 Legend Double Dagger -14.9 -17.3 82 28 17 16.1 99.73   -23 LegendNANA
06:00 Legend Double Dagger -14.7 -17.0 83 28 17 16.1 99.75   -23 LegendNANA
07:00 Legend Double Dagger -14.8 -16.7 86 28 15 16.1 99.75   -23 LegendNANA
08:00 Legend Double Dagger -15.0 -17.1 84 28 17 16.1 99.73   -23 LegendNANA
09:00 Legend Double Dagger -14.9 -17.3 82 27 13 16.1 99.71   -22 Snow
10:00 Legend Double Dagger -15.1 -17.4 83 29 17 16.1 99.70   -24 Snow
11:00 Legend Double Dagger -14.9 -17.4 82 28 15 16.1 99.70   -23 LegendNANA
12:00 Legend Double Dagger -15.1 -17.5 82 29 21 16.1 99.69   -25 LegendNANA
13:00 Legend Double Dagger -15.3 -17.5 83 28 21 16.1 99.71   -25 LegendNANA
14:00 Legend Double Dagger -15.8 -17.9 84 28 22 16.1 99.75   -26 LegendNANA
15:00 Legend Double Dagger -15.8 -18.2 82 26 18 16.1 99.76   -25 LegendNANA
16:00 Legend Double Dagger -15.6 -17.9 83 26 22 16.1 99.76   -25 LegendNANA
17:00 Legend Double Dagger -15.7 -18.4 80 25 11 16.1 99.78   -22 Snow
18:00 Legend Double Dagger -15.9 -18.9 78 21 13 16.1 99.80   -23 Snow
19:00 Legend Double Dagger -15.8 -19.3 75 26 9 16.1 99.82   -22 Snow
20:00 Legend Double Dagger -16.3 -18.8 81 20 17 16.1 99.82   -25 Snow
21:00 Legend Double Dagger -16.7 -19.2 81 20 18 8.1 99.80   -26 Snow
22:00 Legend Double Dagger -16.7 -19.7 78 19 18 14.5 99.81   -26 Snow
23:00 Legend Double Dagger -16.7 -19.7 78 20 21 16.1 99.81   -27 Snow

Notes on Data Quality.

Legend

  • E = Estimated
  • M = Missing
  • NA = Not Available
  • ‡ = Partner data that is not subject to review by the National Climate Archives
Date modified: